FENGYUN 1C DEB

Satellite information

Favourite Embed

Satellite Type and Status

DEBRISIN ORBIT

Key statistics

Satellite FENGYUN 1C DEB at a glance.

Uptime

9555

Days in orbit

Revolutions

≈ 14.2

Per day

Orbit

SSO

Sun Synchronous Orbit

Inclination

98.6

Latest

Satellite identification and parameters

Extended collection of information and parameters for FENGYUN 1C DEB.

Object identification

Identified? True

Debris? True

Object name: FENGYUN 1C DEB

International designator: 1999-025CQM

Object number (NORAD): 32095

Object ID (CCSDS): 32095

Country: PEOPLES REPUBLIC OF CHINA (PRC)

Current information (Y/N): Y

RCS size: SMALL

Orbital parameters

Period: 101.709 minutes

Inclination: 98.6493 deg

SMA: 7217.694 km

Apoapsis: 895.877 km

Periapsis: 783.241 km

RAAN: 204.1515 deg

Eccentricy: 0.0078028

Argument of periapsis: 198.3501 deg

Mean anomaly: 161.4855 deg

Mean motion: 14.15810307 rev/day

Mean motion (dot): 0.00000354 rev/day2

B* drag term: 0.00019614 1/REarth

Two-line elements (TLE)

Creation date: July 2, 2025, 10:36 p.m.

Reference frame: TEME

Reference center: EARTH

Epoch: July 2, 2025, 6:49 p.m. UTC

TLE line 0: 0 FENGYUN 1C DEB

TLE line 1: 1 32095U 99025CQM 25183.78433717 .00000354 00000-0 19614-3 0 9999

TLE line 2: 2 32095 98.6493 204.1515 0078028 198.3501 161.4855 14.15810307926366

Live tracking on map

Real-time ground track for satellite FENGYUN 1C DEB.

In-orbit conjunctions

A list of the most updated potential collisions computed for object FENGYUN 1C DEB.

Target Orbit TCA Probability of collision Miss distance Type
CZ-6A DEB LEO 2025-05-05 16:57:57 0.0001687178 6.0 (m) DEBRIS
TECHSAT 1B SSO 2024-12-20 15:33:16 0.0001176198 871.0 (m) PAYLOAD

Associated space launch

Chinese polar orbiting meteorological satellite

FENGYUN 1C DEB was lifted into orbit during the mission ‘Long March 4B | Feng Yun 1C’, on board a Long March 4B space rocket.

The launch took place on May 10, 1999, 1:33 a.m. from Launch Complex 7.

For more information about the launch, click the button.

Launch to space Long March 4B | Feng Yun 1C
Long March 4B | Feng Yun 1C

Agency: N/A

Status: Launch Successful

Launch date: May 10, 1999, 1:33 a.m. UTC

Rocket: Long March 4B

Launch pad: Launch Complex 7

Location: Taiyuan Satellite Launch Center, People's Republic of China

...

Latest news about this satellite

There are no fresh news available about this satellite. Check back as we update our databases every day.


Newsletter sign-up

Weekly statistics, charts and insights to help you stay on top of the space industry.